CZ-6A DEB

Satellite information

Favourite Embed

Satellite Type and Status

DEBRISIN ORBIT

Key statistics

Satellite CZ-6A DEB at a glance.

Uptime

910

Days in orbit

Revolutions

≈ 14.5

Per day

Orbit

SSO

Sun Synchronous Orbit

Inclination

98.7

Latest

Satellite identification and parameters

Extended collection of information and parameters for CZ-6A DEB.

Object identification

Identified? True

Debris? True

Object name: CZ-6A DEB

International designator: 2022-151UF

Object number (NORAD): 54990

Object ID (CCSDS): 54990

Country: PEOPLES REPUBLIC OF CHINA (PRC)

Current information (Y/N): Y

RCS size: SMALL

Orbital parameters

Period: 99.149 minutes

Inclination: 98.6538 deg

SMA: 7096.113 km

Apoapsis: 780.463 km

Periapsis: 655.493 km

RAAN: 163.0382 deg

Eccentricy: 0.0088055

Argument of periapsis: 125.1602 deg

Mean anomaly: 235.7881 deg

Mean motion: 14.52352375 rev/day

Mean motion (dot): 0.00008356 rev/day2

B* drag term: 0.0019614 1/REarth

Two-line elements (TLE)

Creation date: May 8, 2025, 11:06 p.m.

Reference frame: TEME

Reference center: EARTH

Epoch: May 8, 2025, 2:35 p.m. UTC

TLE line 0: 0 CZ-6A DEB

TLE line 1: 1 54990U 22151UF 25128.60800458 .00008356 00000-0 19614-2 0 9992

TLE line 2: 2 54990 98.6538 163.0382 0088055 125.1602 235.7881 14.52352375129513

Live tracking on map

Real-time ground track for satellite CZ-6A DEB.

In-orbit conjunctions

A list of the most updated potential collisions computed for object CZ-6A DEB.

Target Orbit TCA Probability of collision Miss distance Type
TRANSIT 2A LEO 2024-10-26 06:30:05 0.0001367599 192.0 (m) PAYLOAD

Associated space launch

Chinese satellite reported for atmospheric/ocean/environmental/spatial parameter research purposes, details TBD.

CZ-6A DEB was lifted into orbit during the mission ‘Long March 6A | Yunhai 3’, on board a Long March 6A space rocket.

The launch took place on Nov. 11, 2022, 10:52 p.m. from Launch Complex 9A.

For more information about the launch, click the button.

Launch to space Long March 6A | Yunhai 3
Long March 6A | Yunhai 3

Agency: N/A

Status: Launch Successful

Launch date: Nov. 11, 2022, 10:52 p.m. UTC

Rocket: Long March 6A

Launch pad: Launch Complex 9A

Location: Taiyuan Satellite Launch Center, People's Republic of China

...

Latest news about this satellite

There are no fresh news available about this satellite. Check back as we update our databases every day.


Newsletter sign-up

Weekly statistics, charts and insights to help you stay on top of the space industry.